QPF
0.03 0.02 0.02 0.03 0.02 0.01 0.01 0.01 0.02 0.02 0.03 0.02 0.03 0.03 0.03 0.04 0.04 0.03 0.03 0.03 0.03 0.03 0.03 0.04 0.06 0.08 0.07 0.06 0.07 0.08 0.09 0.09 0.07 0.05 0.04 0.04 0.04 0.04 0.03 0.03 0.03 0.03 0.04
0.01 0.01 0.01 0.01 0.01 0.01 0.01 0.01 0.02 0.02 0.02 0.04 0.05 0.05 0.04 0.03 0.03 0.03 0.02 0.03 0.03 0.03 0.03 0.04 0.05 0.07 0.08 0.08 0.08 0.08 0.07 0.08 0.07 0.06 0.06 0.05 0.04 0.03 0.02 0.03 0.03 0.03 0.04
0.01 0.01 0.01 0.01 0.01 0.01 0.01 0.01 0.01 0.02 0.03 0.06 0.06 0.06 0.07 0.05 0.03 0.03 0.02 0.02 0.02 0.02 0.03 0.04 0.05 0.06 0.06 0.07 0.07 0.06 0.06 0.07 0.08 0.07 0.07 0.06 0.06 0.03 0.03 0.03 0.03 0.04 0.04
0.00 0.00 0.01 0.01 0.01 0.01 0.01 0.01 0.01 0.02 0.04 0.06 0.05 0.05 0.07 0.05 0.03 0.02 0.02 0.02 0.02 0.02 0.02 0.03 0.05 0.05 0.05 0.05 0.06 0.07 0.07 0.08 0.08 0.08 0.06 0.05 0.05 0.04 0.04 0.04 0.04 0.05 0.05
0.00 0.00 0.00 0.00 0.00 0.00 0.00 0.00 0.00 0.00 0.01 0.03 0.02 0.01 0.02 0.02 0.02 0.02 0.02 0.03 0.03 0.03 0.03 0.04 0.05 0.05 0.04 0.04 0.04 0.06 0.06 0.07 0.06 0.06 0.05 0.05 0.04 0.03 0.04 0.04 0.04 0.05 0.05
0.01 0.01 0.01 0.00 0.01 0.01 0.00 0.01 0.00 0.00 0.01 0.01 0.01 0.02 0.02 0.01 0.02 0.01 0.01 0.02 0.03 0.04 0.03 0.03 0.03 0.03 0.02 0.02 0.03 0.03 0.03 0.03 0.03 0.04 0.04 0.04 0.03 0.04 0.04 0.04 0.05 0.05 0.04
0.01 0.01 0.01 0.01 0.00 0.00 0.00 0.00 0.00 0.00 0.01 0.01 0.01 0.01 0.02 0.02 0.02 0.01 0.01 0.02 0.03 0.04 0.04 0.03 0.02 0.02 0.02 0.02 0.02 0.02 0.02 0.01 0.01 0.02 0.02 0.02 0.03 0.04 0.04 0.04 0.05 0.05 0.05
0.01 0.01 0.01 0.00 0.00 0.00 0.00 0.00 0.00 0.01 0.01 0.01 0.01 0.01 0.01 0.01 0.01 0.01 0.01 0.01 0.02 0.03 0.03 0.03 0.03 0.02 0.02 0.02 0.02 0.02 0.01 0.01 0.01 0.01 0.01 0.01 0.02 0.03 0.04 0.04 0.04 0.03 0.03
0.01 0.01 0.01 0.00 0.00 0.00 0.01 0.00 0.00 0.01 0.01 0.00 0.00 0.01 0.01 0.01 0.01 0.01 0.01 0.02 0.02 0.02 0.02 0.03 0.03 0.04 0.03 0.02 0.02 0.02 0.01 0.01 0.01 0.01 0.01 0.01 0.01 0.01 0.01 0.02 0.03 0.03 0.03
0.01 0.01 0.01 0.01 0.02 0.02 0.01 0.01 0.01 0.00 0.00 0.00 0.00 0.01 0.01 0.02 0.02 0.01 0.03 0.04 0.04 0.04 0.03 0.02 0.03 0.03 0.03 0.03 0.03 0.03 0.02 0.02 0.02 0.02 0.02 0.02 0.02 0.01 0.01 0.01 0.02 0.02 0.03
0.01 0.01 0.01 0.02 0.03 0.03 0.02 0.01 0.01 0.01 0.00 0.00 0.01 0.01 0.01 0.01 0.01 0.01 0.01 0.02 0.03 0.05 0.08 0.06 0.05 0.04 0.04 0.04 0.03 0.03 0.03 0.03 0.02 0.03 0.03 0.02 0.02 0.01 0.01 0.01 0.01 0.02 0.03
0.03 0.03 0.03 0.03 0.02 0.02 0.03 0.03 0.02 0.02 0.02 0.01 0.01 0.02 0.02 0.01 0.01 0.00 0.00 0.01 0.04 0.06 0.07 0.11 0.12 0.10 0.09 0.08 0.06 0.05 0.03 0.02 0.02 0.02 0.02 0.01 0.01 0.02 0.02 0.02 0.01 0.01 0.02
0.02 0.02 0.02 0.04 0.04 0.05 0.06 0.05 0.04 0.03 0.03 0.03 0.03 0.03 0.02 0.02 0.01 0.01 0.00 0.01 0.03 0.04 0.04 0.06 0.07 0.08 0.08 0.07 0.05 0.04 0.02 0.01 0.02 0.02 0.01 0.02 0.02 0.02 0.02 0.02 0.02 0.02 0.02
0.03 0.03 0.04 0.05 0.05 0.06 0.06 0.06 0.05 0.04 0.05 0.04 0.03 0.03 0.02 0.02 0.02 0.01 0.01 0.00 0.01 0.01 0.01 0.02 0.02 0.03 0.03 0.03 0.03 0.03 0.03 0.02 0.01 0.01 0.02 0.01 0.01 0.01 0.01 0.01 0.02 0.02 0.01
0.03 0.03 0.04 0.05 0.05 0.05 0.05 0.06 0.07 0.07 0.07 0.05 0.03 0.02 0.02 0.02 0.01 0.01 0.01 0.01 0.00 0.00 0.01 0.01 0.01 0.01 0.02 0.02 0.02 0.03 0.03 0.02 0.02 0.01 0.01 0.01 0.01 0.01 0.01 0.01 0.01 0.02 0.02
0.03 0.03 0.04 0.05 0.06 0.07 0.09 0.10 0.09 0.06 0.05 0.03 0.02 0.02 0.01 0.01 0.01 0.01 0.01 0.00 0.00 0.00 0.01 0.02 0.02 0.02 0.01 0.02 0.02 0.02 0.02 0.02 0.02 0.02 0.02 0.02 0.02 0.02 0.01 0.01 0.02 0.02 0.02
0.04 0.04 0.05 0.06 0.07 0.08 0.07 0.05 0.04 0.02 0.02 0.01 0.01 0.01 0.01 0.01 0.01 0.01 0.01 0.01 0.01 0.01 0.00 0.01 0.01 0.02 0.02 0.02 0.02 0.02 0.02 0.02 0.03 0.03 0.03 0.03 0.03 0.02 0.02 0.02 0.02 0.02 0.02
0.05 0.06 0.06 0.05 0.04 0.03 0.03 0.02 0.02 0.02 0.02 0.01 0.01 0.01 0.01 0.01 0.01 0.01 0.01 0.01 0.01 0.01 0.01 0.01 0.01 0.01 0.01 0.02 0.02 0.02 0.02 0.02 0.03 0.03 0.03 0.04 0.04 0.04 0.03 0.03 0.03 0.03 0.02
0.04 0.04 0.04 0.03 0.02 0.02 0.02 0.02 0.02 0.01 0.01 0.02 0.01 0.01 0.01 0.01 0.01 0.01 0.01 0.01 0.01 0.01 0.01 0.01 0.01 0.01 0.01 0.01 0.02 0.02 0.02 0.02 0.02 0.03 0.03 0.03 0.04 0.04 0.05 0.06 0.06 0.06 0.06
0.03 0.03 0.02 0.01 0.01 0.01 0.01 0.01 0.01 0.01 0.02 0.01 0.01 0.02 0.02 0.01 0.01 0.01 0.01 0.01 0.01 0.01 0.01 0.01 0.01 0.01 0.02 0.02 0.02 0.02 0.02 0.02 0.02 0.02 0.02 0.02 0.02 0.02 0.02 0.03 0.04 0.05 0.05
0.03 0.03 0.02 0.01 0.01 0.01 0.01 0.01 0.01 0.01 0.01 0.01 0.01 0.02 0.02 0.01 0.01 0.01 0.01 0.01 0.02 0.01 0.01 0.01 0.02 0.02 0.02 0.03 0.03 0.03 0.03 0.03 0.02 0.01 0.01 0.01 0.02 0.02 0.02 0.02 0.03 0.03 0.03
0.05 0.03 0.03 0.02 0.01 0.01 0.01 0.01 0.01 0.01 0.01 0.01 0.01 0.02 0.02 0.01 0.02 0.02 0.02 0.02 0.02 0.01 0.01 0.01 0.01 0.01 0.01 0.01 0.01 0.02 0.02 0.02 0.02 0.01 0.01 0.02 0.02 0.03 0.03 0.03 0.03 0.03 0.03
0.04 0.03 0.02 0.02 0.02 0.02 0.02 0.01 0.01 0.02 0.01 0.01 0.01 0.02 0.02 0.01 0.01 0.02 0.02 0.02 0.02 0.01 0.01 0.01 0.01 0.01 0.02 0.02 0.02 0.02 0.02 0.02 0.02 0.02 0.02 0.02 0.02 0.02 0.02 0.03 0.02 0.02 0.02
0.02 0.02 0.02 0.02 0.02 0.01 0.01 0.01 0.01 0.02 0.01 0.01 0.01 0.02 0.02 0.02 0.02 0.02 0.02 0.02 0.02 0.02 0.01 0.02 0.02 0.01 0.01 0.01 0.01 0.02 0.01 0.01 0.01 0.01 0.01 0.01 0.01 0.01 0.02 0.02 0.02 0.03 0.03
0.01 0.01 0.01 0.01 0.01 0.01 0.01 0.01 0.01 0.01 0.01 0.02 0.02 0.03 0.03 0.03 0.02 0.02 0.03 0.04 0.04 0.04 0.03 0.02 0.02 0.01 0.01 0.01 0.01 0.00 0.00 0.00 0.00 0.00 0.00 0.01 0.01 0.01 0.02 0.02 0.02 0.03 0.04
0.01 0.01 0.01 0.01 0.02 0.02 0.01 0.01 0.01 0.02 0.02 0.02 0.02 0.02 0.03 0.03 0.03 0.03 0.04 0.05 0.05 0.04 0.04 0.03 0.02 0.02 0.01 0.01 0.01 0.01 0.01 0.01 0.01 0.01 0.01 0.01 0.01 0.01 0.01 0.02 0.02 0.03 0.03
MSLP
1011.65 1012.08 1012.46 1012.75 1012.91 1012.93 1012.83 1012.66 1012.47 1012.31 1012.22 1012.22 1012.31 1012.47 1012.66 1012.85 1013.01 1013.13 1013.21 1013.25 1013.29 1013.35 1013.45 1013.60 1013.81 1014.08 1014.40 1014.76 1015.15 1015.57 1016.01 1016.47 1016.94 1017.42 1017.89 1018.34 1018.75 1019.11 1019.41 1019.65 1019.83 1019.97 1020.07
1011.09 1011.53 1011.93 1012.25 1012.45 1012.52 1012.48 1012.36 1012.22 1012.10 1012.03 1012.05 1012.14 1012.30 1012.49 1012.67 1012.84 1012.96 1013.04 1013.09 1013.12 1013.16 1013.23 1013.34 1013.51 1013.74 1014.02 1014.36 1014.74 1015.17 1015.62 1016.11 1016.62 1017.13 1017.64 1018.12 1018.55 1018.94 1019.27 1019.54 1019.75 1019.93 1020.09
1010.58 1011.01 1011.42 1011.76 1012.00 1012.12 1012.14 1012.09 1012.01 1011.93 1011.90 1011.93 1012.03 1012.17 1012.35 1012.52 1012.68 1012.80 1012.88 1012.92 1012.95 1012.98 1013.03 1013.11 1013.25 1013.43 1013.68 1013.98 1014.34 1014.74 1015.20 1015.69 1016.21 1016.73 1017.26 1017.75 1018.21 1018.61 1018.95 1019.25 1019.50 1019.72 1019.93
1010.15 1010.55 1010.95 1011.29 1011.56 1011.73 1011.81 1011.83 1011.81 1011.79 1011.80 1011.85 1011.95 1012.09 1012.24 1012.39 1012.53 1012.64 1012.72 1012.77 1012.80 1012.83 1012.87 1012.93 1013.04 1013.19 1013.39 1013.65 1013.96 1014.33 1014.75 1015.22 1015.72 1016.23 1016.74 1017.23 1017.69 1018.09 1018.45 1018.76 1019.03 1019.29 1019.54
1009.78 1010.12 1010.47 1010.80 1011.08 1011.28 1011.43 1011.52 1011.58 1011.63 1011.69 1011.77 1011.88 1012.01 1012.15 1012.28 1012.40 1012.50 1012.57 1012.62 1012.66 1012.70 1012.74 1012.80 1012.89 1013.00 1013.16 1013.37 1013.62 1013.94 1014.30 1014.71 1015.16 1015.64 1016.11 1016.58 1017.01 1017.40 1017.75 1018.07 1018.36 1018.64 1018.93
1009.41 1009.66 1009.95 1010.23 1010.50 1010.74 1010.94 1011.10 1011.25 1011.38 1011.51 1011.64 1011.77 1011.91 1012.04 1012.16 1012.27 1012.36 1012.43 1012.49 1012.55 1012.60 1012.66 1012.72 1012.80 1012.89 1013.01 1013.16 1013.35 1013.58 1013.87 1014.21 1014.58 1014.99 1015.41 1015.82 1016.22 1016.59 1016.92 1017.23 1017.53 1017.82 1018.13
1008.99 1009.13 1009.31 1009.54 1009.78 1010.03 1010.29 1010.53 1010.77 1010.99 1011.21 1011.41 1011.59 1011.75 1011.89 1012.01 1012.11 1012.20 1012.28 1012.36 1012.44 1012.52 1012.59 1012.67 1012.75 1012.83 1012.91 1013.01 1013.13 1013.29 1013.48 1013.73 1014.01 1014.33 1014.68 1015.03 1015.37 1015.70 1016.01 1016.31 1016.60 1016.90 1017.22
1008.47 1008.46 1008.54 1008.69 1008.90 1009.16 1009.47 1009.79 1010.13 1010.46 1010.78 1011.06 1011.31 1011.51 1011.67 1011.80 1011.91 1012.01 1012.10 1012.20 1012.30 1012.42 1012.53 1012.63 1012.72 1012.79 1012.85 1012.91 1012.96 1013.04 1013.15 1013.30 1013.49 1013.72 1013.98 1014.26 1014.55 1014.84 1015.12 1015.39 1015.67 1015.96 1016.28
1007.83 1007.69 1007.65 1007.72 1007.90 1008.17 1008.53 1008.94 1009.38 1009.83 1010.25 1010.63 1010.95 1011.20 1011.40 1011.55 1011.67 1011.78 1011.88 1012.00 1012.13 1012.27 1012.42 1012.55 1012.66 1012.74 1012.79 1012.82 1012.83 1012.84 1012.87 1012.93 1013.03 1013.17 1013.36 1013.57 1013.80 1014.05 1014.30 1014.55 1014.82 1015.10 1015.41
1007.14 1006.87 1006.73 1006.73 1006.88 1007.17 1007.58 1008.07 1008.61 1009.17 1009.70 1010.17 1010.56 1010.87 1011.10 1011.27 1011.40 1011.51 1011.62 1011.75 1011.90 1012.07 1012.24 1012.41 1012.54 1012.65 1012.70 1012.71 1012.69 1012.66 1012.63 1012.62 1012.64 1012.71 1012.82 1012.97 1013.15 1013.36 1013.58 1013.82 1014.07 1014.34 1014.64
1006.48 1006.11 1005.89 1005.84 1005.98 1006.28 1006.74 1007.31 1007.94 1008.59 1009.21 1009.76 1010.21 1010.56 1010.81 1010.99 1011.11 1011.21 1011.32 1011.45 1011.61 1011.79 1011.99 1012.19 1012.35 1012.48 1012.55 1012.57 1012.53 1012.47 1012.40 1012.34 1012.30 1012.30 1012.35 1012.45 1012.59 1012.76 1012.96 1013.18 1013.42 1013.68 1013.97
1005.95 1005.52 1005.25 1005.18 1005.30 1005.64 1006.13 1006.76 1007.46 1008.18 1008.86 1009.46 1009.95 1010.32 1010.57 1010.74 1010.84 1010.92 1011.01 1011.12 1011.28 1011.47 1011.69 1011.90 1012.10 1012.25 1012.34 1012.37 1012.34 1012.26 1012.16 1012.06 1011.98 1011.93 1011.93 1011.98 1012.08 1012.22 1012.39 1012.60 1012.82 1013.08 1013.35
1005.62 1005.17 1004.89 1004.81 1004.95 1005.30 1005.83 1006.49 1007.22 1007.98 1008.69 1009.31 1009.80 1010.17 1010.41 1010.54 1010.62 1010.66 1010.72 1010.81 1010.95 1011.13 1011.35 1011.58 1011.80 1011.97 1012.09 1012.13 1012.11 1012.03 1011.91 1011.78 1011.66 1011.56 1011.51 1011.51 1011.56 1011.67 1011.82 1012.00 1012.22 1012.46 1012.73
1005.53 1005.09 1004.83 1004.76 1004.91 1005.27 1005.81 1006.48 1007.22 1007.98 1008.68 1009.29 1009.76 1010.10 1010.31 1010.41 1010.45 1010.46 1010.48 1010.55 1010.67 1010.84 1011.06 1011.30 1011.52 1011.71 1011.84 1011.90 1011.88 1011.80 1011.66 1011.50 1011.34 1011.19 1011.09 1011.03 1011.03 1011.09 1011.20 1011.35 1011.55 1011.78 1012.04
1005.61 1005.22 1005.00 1004.96 1005.12 1005.49 1006.02 1006.67 1007.39 1008.10 1008.78 1009.35 1009.79 1010.09 1010.26 1010.34 1010.35 1010.33 1010.33 1010.38 1010.49 1010.65 1010.87 1011.11 1011.34 1011.54 1011.68 1011.74 1011.72 1011.62 1011.46 1011.26 1011.05 1010.85 1010.67 1010.55 1010.48 1010.47 1010.53 1010.64 1010.80 1011.00 1011.24
1005.77 1005.46 1005.28 1005.28 1005.46 1005.81 1006.31 1006.93 1007.60 1008.27 1008.89 1009.42 1009.82 1010.09 1010.25 1010.31 1010.31 1010.30 1010.30 1010.35 1010.46 1010.63 1010.85 1011.09 1011.32 1011.52 1011.66 1011.71 1011.67 1011.55 1011.36 1011.11 1010.84 1010.56 1010.31 1010.10 1009.95 1009.86 1009.84 1009.88 1009.99 1010.15 1010.35
1005.89 1005.66 1005.54 1005.57 1005.76 1006.10 1006.58 1007.15 1007.76 1008.38 1008.95 1009.44 1009.82 1010.08 1010.24 1010.32 1010.36 1010.37 1010.41 1010.48 1010.62 1010.80 1011.03 1011.27 1011.51 1011.70 1011.82 1011.86 1011.80 1011.64 1011.40 1011.10 1010.76 1010.40 1010.06 1009.75 1009.50 1009.31 1009.19 1009.15 1009.17 1009.26 1009.40
1005.88 1005.73 1005.68 1005.75 1005.95 1006.28 1006.73 1007.26 1007.83 1008.40 1008.93 1009.40 1009.78 1010.06 1010.26 1010.39 1010.48 1010.56 1010.66 1010.79 1010.96 1011.18 1011.42 1011.67 1011.90 1012.08 1012.18 1012.19 1012.10 1011.90 1011.61 1011.24 1010.83 1010.39 1009.95 1009.54 1009.18 1008.87 1008.64 1008.49 1008.41 1008.41 1008.47
1005.73 1005.66 1005.66 1005.77 1005.99 1006.33 1006.75 1007.25 1007.79 1008.34 1008.86 1009.33 1009.73 1010.06 1010.32 1010.53 1010.70 1010.86 1011.04 1011.24 1011.47 1011.72 1011.99 1012.24 1012.47 1012.63 1012.71 1012.68 1012.54 1012.30 1011.96 1011.53 1011.05 1010.52 1009.99 1009.48 1009.00 1008.58 1008.22 1007.95 1007.75 1007.63 1007.59
1005.47 1005.47 1005.54 1005.70 1005.95 1006.29 1006.72 1007.20 1007.73 1008.27 1008.80 1009.29 1009.73 1010.12 1010.45 1010.75 1011.02 1011.27 1011.53 1011.80 1012.08 1012.37 1012.65 1012.91 1013.12 1013.26 1013.30 1013.24 1013.07 1012.78 1012.39 1011.91 1011.36 1010.77 1010.15 1009.54 1008.96 1008.42 1007.94 1007.53 1007.20 1006.95 1006.79
1005.23 1005.30 1005.43 1005.63 1005.92 1006.28 1006.72 1007.21 1007.74 1008.29 1008.83 1009.35 1009.84 1010.28 1010.69 1011.06 1011.41 1011.74 1012.07 1012.39 1012.71 1013.03 1013.31 1013.56 1013.75 1013.86 1013.88 1013.79 1013.58 1013.25 1012.83 1012.30 1011.70 1011.05 1010.36 1009.67 1008.99 1008.34 1007.74 1007.21 1006.74 1006.36 1006.07
1005.13 1005.26 1005.44 1005.70 1006.02 1006.41 1006.87 1007.37 1007.91 1008.47 1009.02 1009.56 1010.08 1010.56 1011.02 1011.44 1011.84 1012.22 1012.59 1012.95 1013.28 1013.60 1013.88 1014.11 1014.27 1014.35 1014.34 1014.21 1013.98 1013.63 1013.17 1012.62 1011.99 1011.29 1010.55 1009.79 1009.03 1008.29 1007.59 1006.94 1006.35 1005.85 1005.43
1005.30 1005.47 1005.70 1005.99 1006.35 1006.77 1007.23 1007.74 1008.28 1008.83 1009.38 1009.92 1010.44 1010.93 1011.39 1011.83 1012.25 1012.64 1013.02 1013.37 1013.70 1014.00 1014.25 1014.46 1014.59 1014.64 1014.60 1014.46 1014.20 1013.84 1013.37 1012.81 1012.16 1011.44 1010.66 1009.86 1009.04 1008.22 1007.43 1006.68 1006.00 1005.38 1004.86
1005.76 1005.96 1006.22 1006.54 1006.91 1007.34 1007.80 1008.30 1008.82 1009.34 1009.86 1010.37 1010.85 1011.32 1011.75 1012.17 1012.56 1012.93 1013.27 1013.60 1013.90 1014.17 1014.40 1014.57 1014.68 1014.72 1014.66 1014.51 1014.25 1013.88 1013.41 1012.85 1012.20 1011.47 1010.68 1009.84 1008.98 1008.12 1007.26 1006.45 1005.68 1004.99 1004.39
1006.47 1006.67 1006.94 1007.26 1007.63 1008.05 1008.49 1008.95 1009.42 1009.90 1010.36 1010.80 1011.22 1011.62 1012.00 1012.36 1012.70 1013.02 1013.33 1013.62 1013.88 1014.12 1014.32 1014.48 1014.58 1014.60 1014.54 1014.39 1014.15 1013.79 1013.34 1012.79 1012.14 1011.42 1010.62 1009.78 1008.90 1008.00 1007.12 1006.26 1005.44 1004.70 1004.05
1007.30 1007.49 1007.75 1008.05 1008.39 1008.77 1009.16 1009.57 1009.97 1010.37 1010.75 1011.11 1011.46 1011.78 1012.08 1012.37 1012.65 1012.92 1013.18 1013.43 1013.67 1013.89 1014.08 1014.23 1014.33 1014.37 1014.33 1014.20 1013.98 1013.65 1013.22 1012.69 1012.07 1011.36 1010.58 1009.73 1008.85 1007.95 1007.05 1006.18 1005.35 1004.59 1003.92
Thickness
5802 5798 5795 5791 5787 5784 5780 5777 5773 5770 5767 5764 5760 5757 5754 5752 5749 5747 5744 5741 5738 5736 5735 5733 5732 5731 5729 5728 5727 5725 5722 5716 5705 5702 5701 5698 5695 5692 5687 5684 5682 5679 5677
5804 5799 5795 5791 5788 5783 5780 5776 5773 5770 5766 5763 5759 5756 5753 5750 5747 5744 5741 5738 5735 5732 5730 5729 5728 5728 5725 5723 5721 5719 5716 5713 5706 5697 5694 5692 5689 5687 5684 5681 5678 5674 5670
5805 5799 5794 5790 5786 5782 5779 5776 5773 5769 5766 5762 5758 5754 5751 5748 5745 5742 5739 5736 5733 5730 5728 5725 5724 5722 5720 5718 5716 5714 5712 5709 5704 5697 5691 5688 5684 5682 5679 5676 5673 5668 5665
5806 5799 5793 5790 5786 5782 5779 5775 5772 5768 5764 5760 5756 5753 5750 5746 5742 5739 5736 5733 5730 5727 5725 5722 5720 5717 5715 5713 5711 5708 5706 5702 5698 5693 5688 5683 5679 5677 5673 5668 5664 5662 5659
5805 5799 5794 5790 5786 5782 5777 5773 5770 5766 5762 5758 5754 5751 5748 5744 5739 5735 5733 5730 5726 5723 5720 5718 5715 5712 5709 5707 5705 5701 5698 5694 5690 5686 5682 5678 5673 5669 5665 5663 5658 5655 5653
5804 5799 5795 5790 5784 5779 5775 5771 5767 5762 5759 5755 5750 5747 5744 5740 5735 5732 5729 5726 5723 5719 5715 5713 5710 5707 5704 5701 5698 5695 5692 5688 5684 5680 5676 5671 5668 5665 5661 5658 5654 5649 5645
5803 5798 5793 5788 5782 5777 5774 5768 5763 5759 5755 5750 5747 5742 5737 5733 5729 5727 5724 5722 5719 5715 5711 5708 5706 5703 5699 5695 5692 5689 5686 5683 5680 5676 5670 5666 5663 5660 5656 5652 5649 5645 5641
5800 5796 5791 5786 5780 5775 5770 5765 5760 5756 5751 5747 5742 5738 5733 5728 5724 5721 5719 5717 5714 5711 5707 5703 5699 5695 5692 5689 5686 5682 5678 5675 5673 5670 5666 5662 5658 5654 5651 5647 5643 5639 5636
5796 5792 5788 5783 5777 5771 5766 5761 5757 5752 5747 5743 5738 5734 5728 5723 5719 5716 5714 5712 5708 5705 5702 5697 5693 5688 5685 5682 5679 5675 5671 5667 5664 5661 5658 5654 5650 5647 5643 5639 5636 5631 5627
5792 5789 5785 5780 5774 5768 5763 5758 5754 5749 5743 5739 5734 5730 5725 5719 5714 5711 5708 5707 5703 5699 5695 5690 5686 5682 5678 5675 5672 5668 5663 5660 5657 5654 5650 5647 5644 5640 5637 5633 5630 5625 5622
5789 5785 5780 5775 5770 5764 5758 5753 5748 5744 5739 5734 5729 5724 5719 5715 5710 5705 5702 5700 5697 5693 5689 5685 5680 5676 5673 5670 5665 5661 5656 5653 5650 5647 5644 5641 5637 5634 5631 5628 5625 5621 5616
5782 5777 5772 5768 5764 5759 5752 5747 5742 5737 5732 5727 5723 5718 5714 5709 5705 5700 5696 5692 5689 5686 5682 5678 5673 5669 5666 5662 5658 5654 5650 5647 5644 5641 5637 5633 5630 5627 5624 5621 5618 5615 5612
5772 5768 5764 5760 5756 5752 5746 5740 5736 5731 5726 5722 5717 5713 5708 5704 5699 5694 5689 5685 5681 5678 5674 5670 5666 5661 5658 5654 5650 5646 5643 5640 5637 5634 5630 5628 5625 5623 5620 5615 5612 5608 5605
5762 5758 5755 5751 5747 5743 5739 5734 5729 5724 5721 5716 5712 5707 5703 5699 5694 5688 5683 5678 5673 5669 5665 5661 5657 5654 5650 5647 5644 5640 5637 5635 5632 5628 5625 5623 5620 5616 5613 5609 5605 5601 5596
5752 5749 5746 5742 5738 5734 5729 5725 5721 5717 5714 5710 5706 5702 5697 5692 5687 5681 5677 5672 5668 5662 5658 5654 5650 5646 5643 5641 5638 5636 5633 5630 5625 5622 5619 5616 5613 5609 5606 5602 5598 5594 5589
5742 5740 5737 5734 5731 5726 5721 5716 5711 5708 5705 5701 5698 5694 5689 5683 5677 5673 5668 5664 5659 5655 5651 5648 5645 5642 5639 5636 5633 5630 5627 5624 5620 5616 5612 5609 5605 5602 5598 5595 5591 5586 5583
5734 5732 5728 5725 5722 5719 5714 5709 5703 5697 5694 5691 5688 5684 5679 5673 5669 5665 5660 5655 5651 5646 5644 5642 5639 5637 5634 5630 5627 5625 5621 5618 5613 5609 5605 5602 5598 5595 5591 5587 5583 5580 5576
5726 5722 5719 5716 5714 5711 5708 5703 5699 5694 5688 5684 5678 5674 5669 5664 5660 5656 5650 5646 5643 5640 5639 5637 5635 5632 5629 5626 5622 5619 5615 5611 5607 5603 5598 5595 5591 5587 5584 5580 5577 5573 5570
5716 5712 5710 5707 5705 5703 5700 5696 5692 5688 5683 5678 5673 5666 5659 5654 5650 5646 5641 5640 5639 5637 5634 5632 5630 5627 5624 5620 5616 5612 5608 5604 5600 5595 5592 5588 5585 5581 5577 5574 5571 5567 5564
5706 5704 5701 5699 5698 5695 5691 5688 5684 5679 5675 5670 5666 5661 5653 5647 5644 5640 5635 5635 5633 5631 5628 5625 5623 5620 5617 5613 5609 5605 5601 5597 5593 5588 5585 5581 5578 5574 5571 5568 5564 5561 5558
5697 5694 5691 5690 5689 5686 5683 5679 5676 5672 5667 5663 5659 5655 5648 5645 5642 5638 5634 5630 5627 5625 5622 5619 5616 5612 5608 5604 5601 5597 5594 5589 5586 5582 5578 5574 5571 5567 5564 5561 5557 5555 5553
5687 5685 5683 5680 5678 5676 5673 5671 5668 5664 5660 5656 5651 5647 5640 5639 5637 5634 5630 5625 5622 5618 5615 5612 5609 5605 5602 5598 5594 5590 5586 5582 5578 5575 5571 5567 5564 5561 5558 5554 5551 5549 5547
5679 5676 5673 5671 5669 5665 5663 5661 5658 5655 5651 5648 5645 5641 5634 5631 5630 5627 5624 5620 5616 5612 5608 5605 5602 5598 5595 5591 5587 5583 5578 5574 5571 5567 5564 5560 5557 5554 5551 5548 5545 5543 5541
5671 5669 5666 5663 5660 5658 5655 5652 5649 5647 5644 5640 5637 5634 5630 5625 5622 5620 5617 5614 5609 5605 5601 5598 5595 5591 5587 5583 5579 5575 5571 5567 5563 5560 5557 5554 5551 5547 5545 5541 5539 5537 5534
5663 5661 5659 5656 5653 5650 5647 5645 5642 5640 5637 5634 5631 5627 5624 5620 5616 5612 5609 5605 5601 5598 5594 5591 5587 5583 5580 5575 5571 5567 5563 5559 5556 5552 5549 5547 5544 5541 5538 5535 5533 5530 5527
5655 5653 5651 5648 5645 5643 5640 5638 5635 5632 5629 5626 5623 5620 5616 5613 5609 5606 5602 5598 5594 5591 5588 5584 5580 5576 5572 5568 5563 5559 5555 5551 5548 5544 5541 5539 5537 5534 5531 5528 5526 5524 5521